Change the Weather History Date:

Friday, November 30, 2012

  Actual Average (KFLG) Record (KFLG)
Temperature  
Mean Temperature 44 °F 32 °F  
Max Temperature 55 °F 45 °F 66 °F (1995)
Min Temperature 33 °F 19 °F -4 °F (2010)
Degree Days  
Heating Degree Days 21 33  
Month to date heating degree days 849  
Since 1 July heating degree days 1732  
Cooling Degree Days 0 0  
Month to date cooling degree days 0  
Year to date cooling degree days 117  
Moisture  
Dew Point 33 °F    
Average Humidity 67    
Maximum Humidity 93    
Minimum Humidity 33    
Precipitation  
Precipitation 0.00 in 0.06 in 2.13 in (1982)
Month to date precipitation 1.76  
Year to date precipitation 19.99  
Snow  
Snow 0.00 in 0.50 in 13.40 in (1982)
Month to date snowfall 10.7  
Since 1 July snowfall 12.2  
Snow Depth -    
Sea Level Pressure  
Sea Level Pressure 30.29 in    
Wind  
Wind Speed 7 mph (South)    
Max Wind Speed 10 mph    
Max Gust Speed 18 mph    
Visibility 10 miles    
Events      
T = Trace of Precipitation, MM = Missing Value Source: NWS Daily Summary

Daily Weather History Graph

Daily Weather History Graph

Search for Another Location

Airport or City:

Trip Planner

Search our weather history database for the weather conditions in past years. The results will help you decide how hot, cold, wet, or windy it might be!

Date:

Astronomy

Nov. 30, 2012 Rise Set
Actual Time 7:18 AM MST 5:16 PM MST
Civil Twilight 6:50 AM MST 5:44 PM MST
Nautical Twilight 6:19 AM MST 6:15 PM MST
Astronomical Twilight 5:48 AM MST 6:46 PM MST
Moon 7:14 PM MST (11/30) 8:53 AM MST (11/30)
Length of Visible Light 10h 53m
Length of Day
9h 57m
Waning Gibbous, 96% of the Moon is Illuminated
Nov 30
Waning Gibbous
Dec 6
Last Quarter
Dec 13
New
Dec 19
First Quarter
Dec 28
Full

Hourly Weather History & Observations

Time (MST) Temp. Windchill Dew Point Humidity Pressure Visibility Wind Dir Wind Speed Gust Speed Precip Events Conditions
12:15 AM 39.2 °F 33.6 °F 33.8 °F 81% 30.32 in 10.0 mi SSE 8.1 mph - N/A   Clear
12:35 AM 37.4 °F 34.9 °F 32.0 °F 81% 30.32 in 10.0 mi South 3.5 mph - N/A   Clear
12:55 AM 39.2 °F 35.0 °F 32.0 °F 75% 30.32 in 10.0 mi SE 5.8 mph - N/A   Clear
1:15 AM 39.2 °F 34.2 °F 33.8 °F 81% 30.31 in 10.0 mi SE 6.9 mph - N/A   Clear
1:35 AM 39.2 °F 35.9 °F 33.8 °F 81% 30.31 in 10.0 mi SE 4.6 mph - N/A   Clear
1:55 AM 41.0 °F 36.4 °F 33.8 °F 76% 30.31 in 10.0 mi South 6.9 mph - N/A   Clear
2:15 AM 41.0 °F 35.2 °F 35.6 °F 81% 30.30 in 10.0 mi South 9.2 mph - N/A   Clear
2:35 AM 39.2 °F 34.2 °F 33.8 °F 81% 30.30 in 10.0 mi South 6.9 mph - N/A   Clear
2:55 AM 39.2 °F 34.2 °F 33.8 °F 81% 30.29 in 10.0 mi SSE 6.9 mph - N/A   Clear
3:15 AM 37.4 °F 32.1 °F 32.0 °F 81% 30.30 in 10.0 mi South 6.9 mph - N/A   Clear
3:35 AM 35.6 °F 32.8 °F 32.0 °F 87% 30.29 in 10.0 mi SE 3.5 mph - N/A   Clear
3:55 AM 35.6 °F 28.6 °F 32.0 °F 87% 30.28 in 10.0 mi SSE 9.2 mph - N/A   Clear
4:15 AM 35.6 °F 28.6 °F 32.0 °F 87% 30.27 in 10.0 mi SSE 9.2 mph - N/A   Clear
4:35 AM 33.8 °F 26.4 °F 32.0 °F 93% 30.27 in 10.0 mi SE 9.2 mph - N/A   Clear
4:55 AM 35.6 °F 29.9 °F 32.0 °F 87% 30.26 in 10.0 mi SE 6.9 mph - N/A   Clear
5:15 AM 35.6 °F 30.7 °F 32.0 °F 87% 30.27 in 10.0 mi SE 5.8 mph - N/A   Clear
5:35 AM 33.8 °F 28.6 °F 32.0 °F 93% 30.27 in 10.0 mi SSE 5.8 mph - N/A   Clear
5:55 AM 35.6 °F 30.7 °F 32.0 °F 87% 30.28 in 10.0 mi SE 5.8 mph - N/A   Clear
6:15 AM 39.2 °F 34.2 °F 32.0 °F 75% 30.28 in 10.0 mi SSE 6.9 mph - N/A   Clear
6:35 AM 35.6 °F 29.9 °F 32.0 °F 87% 30.29 in 10.0 mi SE 6.9 mph - N/A   Clear
6:55 AM 35.6 °F 30.7 °F 32.0 °F 87% 30.30 in 10.0 mi South 5.8 mph - N/A   Clear
7:15 AM 35.6 °F 28.6 °F 32.0 °F 87% 30.30 in 10.0 mi SSE 9.2 mph - N/A   Clear
7:35 AM 35.6 °F 29.9 °F 33.8 °F 93% 30.31 in 10.0 mi SE 6.9 mph - N/A   Clear
7:55 AM 35.6 °F 29.9 °F 33.8 °F 93% 30.31 in 10.0 mi SE 6.9 mph - N/A   Clear
8:15 AM 37.4 °F 32.1 °F 33.8 °F 87% 30.32 in 10.0 mi SSE 6.9 mph - N/A   Clear
8:35 AM 39.2 °F 35.0 °F 35.6 °F 87% 30.32 in 10.0 mi SSE 5.8 mph - N/A   Clear
8:55 AM 41.0 °F 36.4 °F 37.4 °F 87% 30.33 in 10.0 mi SSE 6.9 mph - N/A   Clear
9:15 AM 44.6 °F 39.7 °F 37.4 °F 76% 30.32 in 10.0 mi SE 9.2 mph - N/A   Clear
9:35 AM 46.4 °F 42.4 °F 35.6 °F 66% 30.32 in 10.0 mi SE 8.1 mph - N/A   Clear
9:55 AM 48.2 °F - 35.6 °F 62% 30.33 in 10.0 mi SE 8.1 mph - N/A   Clear
10:15 AM 50.0 °F - 35.6 °F 58% 30.32 in 10.0 mi SE 9.2 mph - N/A   Clear
10:35 AM 50.0 °F - 35.6 °F 58% 30.32 in 10.0 mi SE 9.2 mph - N/A   Clear
10:55 AM 51.8 °F - 35.6 °F 54% 30.32 in 10.0 mi South 6.9 mph - N/A   Clear
11:15 AM 51.8 °F - 35.6 °F 54% 30.31 in 10.0 mi SSE 5.8 mph - N/A   Clear
11:35 AM 55.4 °F - 28.4 °F 36% 30.30 in 10.0 mi SW 5.8 mph - N/A   Clear
11:55 AM 55.4 °F - 28.4 °F 36% 30.30 in 10.0 mi SW 8.1 mph - N/A   Clear
12:15 PM 55.4 °F - 28.4 °F 36% 30.29 in 10.0 mi SSW 10.4 mph - N/A   Clear
12:35 PM 55.4 °F - 28.4 °F 36% 30.28 in 10.0 mi SW 9.2 mph 18.4 mph N/A   Clear
12:55 PM 55.4 °F - 26.6 °F 33% 30.27 in 10.0 mi SW 10.4 mph 16.1 mph N/A   Clear
1:15 PM 55.4 °F - 26.6 °F 33% 30.26 in 10.0 mi SSW 9.2 mph 17.3 mph N/A   Clear
1:35 PM 53.6 °F - 26.6 °F 35% 30.26 in 10.0 mi SW 9.2 mph 16.1 mph N/A   Clear
1:55 PM 53.6 °F - 28.4 °F 38% 30.27 in 10.0 mi SSW 6.9 mph - N/A   Clear
2:15 PM 53.6 °F - 30.2 °F 41% 30.26 in 10.0 mi SW 6.9 mph - N/A   Clear
2:35 PM 53.6 °F - 32.0 °F 44% 30.25 in 10.0 mi SW 10.4 mph - N/A   Clear
2:55 PM 53.6 °F - 32.0 °F 44% 30.25 in 10.0 mi South 10.4 mph - N/A   Clear
3:15 PM 51.8 °F - 32.0 °F 47% 30.26 in 10.0 mi SSW 9.2 mph - N/A   Clear
3:35 PM 51.8 °F - 32.0 °F 47% 30.26 in 10.0 mi SSW 10.4 mph - N/A   Clear
3:55 PM 50.0 °F - 32.0 °F 50% 30.26 in 10.0 mi SSW 9.2 mph - N/A   Clear
4:15 PM 50.0 °F - 33.8 °F 54% 30.27 in 10.0 mi SSW 9.2 mph - N/A   Clear
4:35 PM 50.0 °F - 35.6 °F 58% 30.27 in 10.0 mi SW 6.9 mph - N/A   Clear
4:55 PM 48.2 °F - 35.6 °F 62% 30.28 in 10.0 mi SSW 6.9 mph - N/A   Clear
5:15 PM 48.2 °F - 35.6 °F 62% 30.27 in 10.0 mi South 6.9 mph - N/A   Clear
5:35 PM 48.2 °F - 35.6 °F 62% 30.28 in 10.0 mi SSW 8.1 mph - N/A   Clear
5:55 PM 48.2 °F - 35.6 °F 62% 30.28 in 10.0 mi SSW 8.1 mph - N/A   Clear
6:15 PM 46.4 °F 41.5 °F 35.6 °F 66% 30.28 in 10.0 mi SSW 10.4 mph - N/A   Clear
6:35 PM 46.4 °F 42.4 °F 35.6 °F 66% 30.29 in 10.0 mi South 8.1 mph - N/A   Clear
6:55 PM 46.4 °F 41.5 °F 33.8 °F 62% 30.28 in 10.0 mi South 10.4 mph - N/A   Clear
7:15 PM 44.6 °F 42.2 °F 32.0 °F 61% 30.29 in 10.0 mi South 4.6 mph - N/A   Clear
7:35 PM 46.4 °F 42.4 °F 32.0 °F 57% 30.30 in 10.0 mi SSW 8.1 mph - N/A   Clear
8:15 PM 46.4 °F 42.9 °F 30.2 °F 53% 30.30 in 10.0 mi SSW 6.9 mph - N/A   Clear
8:35 PM 46.4 °F 42.9 °F 32.0 °F 57% 30.30 in 10.0 mi South 6.9 mph - N/A   Clear
8:55 PM 46.4 °F 43.5 °F 32.0 °F 57% 30.30 in 10.0 mi SSW 5.8 mph - N/A   Clear
9:15 PM 42.8 °F 40.1 °F 32.0 °F 66% 30.29 in 10.0 mi SE 4.6 mph - N/A   Clear
9:35 PM 41.0 °F 38.0 °F 32.0 °F 70% 30.29 in 10.0 mi SE 4.6 mph - N/A   Clear
9:55 PM 41.0 °F 36.4 °F 30.2 °F 65% 30.28 in 10.0 mi SSE 6.9 mph - N/A   Clear
10:15 PM 41.0 °F 35.2 °F 32.0 °F 70% 30.28 in 10.0 mi SSE 9.2 mph - N/A   Clear
10:35 PM 41.0 °F 35.2 °F 32.0 °F 70% 30.27 in 10.0 mi SSE 9.2 mph - N/A   Clear
10:55 PM 41.0 °F 35.8 °F 32.0 °F 70% 30.28 in 10.0 mi SE 8.1 mph - N/A   Clear
11:15 PM 41.0 °F 35.8 °F 32.0 °F 70% 30.27 in 10.0 mi SSE 8.1 mph - N/A   Clear
11:35 PM 41.0 °F 36.4 °F 32.0 °F 70% 30.28 in 10.0 mi SE 6.9 mph - N/A   Clear
11:55 PM 39.2 °F 33.0 °F 32.0 °F 75% 30.26 in 10.0 mi South 9.2 mph - N/A   Clear